星链-11269 (STARLINK-11269)

导读

STARLINK-11269是美国太空探索技术公司(SpaceX)星链星座的一员,于2024年9月5日发射入轨,属于星链互联网卫星组网部署的组成部分。星链项目旨在打造全球卫星互联网星座,该卫星承担着为全球尤其是偏远地区提供高速宽带互联网接入服务的任务,进一步扩充了星链星座的在轨服务规模。

基本信息
目录编号:
60995
目录名称:
STARLINK-11269
国际标识:
2024-158F
轨道中心:
EARTH
卫星名称:
星链-11269
卫星全名:
星链-11269 (STARLINK-11269)
卫星状态:
在轨 (已飞行647 天)
发射日期:
2024-09-05 UTC
国别 :
美国 (US)
星等 :
--
轨道信息
数据来源 国际轨道数据
星历时间: 2026-06-14T01:13:31+0800
18小时前
查看轨道信息
半长轴: 6737.899km
偏心率: 0.0001007
轨道倾角: 53.159°
近地点辐角 85.498°
升交点赤经 168.122°
平近点角 274.615°
近地点: 359.083km
远地点: 360.441km
周期: 91.737分钟
每日圈数: 15.69698
详细信息
固有亮度:
5
最大亮度:
2.5
卫星平台:
Starlink V1.0
覆盖范围:
全球
运营商:
太空探索技术公司
运营商所在国:
美国
制造商(研发单位):
太空探索技术公司
制造商所在国:
美国
使用方式:
暂无
卫星简介
Starlink 计划是 SpaceX 推出的全球卫星互联网项目,通过发射低轨道卫星,为全球尤其是偏远地区提供高速、低延迟的互联网服务。自 2019 年起,Starlink 已部署数千颗卫星,旨在缩小全球数字鸿沟,推动互联网普及。该项目还为军事、航空等行业提供通信支持,带来广泛经济效益。
2D轨道图
3D轨道图
轨道高度分析图
轨道倾角分析图
轨道综合分析图
查看轨道综合分析图